Flag for U.S.A. Weather past 2 weeks in Riverside, California, U.S.A.

54 °F

Scattered clouds.

Feels Like: 54 °F
Forecast: 45 / 60 °F
Wind: No wind

Location: Riverside Municipal Airport

Current Time: Nov 25, 2015 at 8:20:14 AM

Latest Report: Nov 25, 2015 at 7:53 AM

Visibility: 10 mi

Pressure: 29.87 "Hg

Humidity: 62%

Dew point: 41 °F

Location of RiversideLocation

Historic Weather in Riverside — Graph


Riverside temperature yesterday

Maximum temperature yesterday: 72 °F (at 12:53 PM)
Minimum temperature yesterday: 48 °F (at 5:53 AM)
Average temperature yesterday: 58 °F

Past Weeks' High & Low Weather Summary

High89 °F (Nov 20, 12:53 PM)93% (Nov 25, 3:00 AM)30.28 "Hg (Nov 25, 3:00 AM)
Low27 °F (Nov 17, 5:55 AM)6% (Nov 22, 12:53 PM)29.80 "Hg (Nov 15, 1:53 PM)
Average62 °F30%29.96 "Hg
* Reported Nov 10 6:53 AM — Nov 25 6:53 AM, Riverside, Weather by CustomWeather, © 2015

Note: Actual official high and low records may vary slightly from our data, if they occured in-between our weather recording intervals... More about our weather records


Riverside weather history for previous 24 hours

Time TempWeatherWind HumidityBarometerVisibility
6:53 AM
Wed, Nov 25
51 °FScattered clouds.No wind71%29.85 "Hg10 mi
5:53 AM51 °FPassing clouds.5 mph74%29.83 "Hg10 mi
4:53 AM53 °FOvercast.9 mph77%29.82 "Hg10 mi
3:53 AM54 °FMostly cloudy.12 mph86%29.81 "Hg10 mi
3:00 AM53 °FRain. Fog.5 mph93%29.84 "Hg2 mi
1:53 AM55 °FMostly cloudy.No wind87%29.80 "Hg10 mi
12:53 AM56 °FLight rain. Mostly cloudy.3 mph81%29.83 "Hg7 mi
11:53 PM
Tue, Nov 24
56 °FOvercast.No wind77%29.85 "Hg10 mi
10:53 PM55 °FPassing clouds.3 mph77%29.87 "Hg10 mi
9:53 PM57 °FPassing clouds.3 mph74%29.87 "Hg10 mi
8:53 PM57 °FMostly cloudy.3 mph78%29.88 "Hg10 mi
7:53 PM57 °FPassing clouds.3 mph78%29.86 "Hg10 mi
6:53 PM58 °FClear.3 mph72%29.85 "Hg10 mi
5:53 PM59 °FClear.No wind69%29.85 "Hg10 mi
4:53 PM61 °FPassing clouds.7 mph67%29.84 "Hg10 mi
3:53 PM65 °FScattered clouds.7 mph59%29.84 "Hg10 mi
2:53 PM67 °FPartly sunny.8 mph57%29.84 "Hg10 mi
1:53 PM71 °FScattered clouds.10 mph44%29.83 "Hg10 mi
12:53 PM72 °FScattered clouds.7 mph26%29.86 "Hg10 mi
11:53 AM70 °FPassing clouds.6 mph29%29.89 "Hg10 mi
10:53 AM66 °FPassing clouds.6 mph29%29.93 "Hg10 mi
9:53 AM63 °FPassing clouds.3 mph31%29.95 "Hg10 mi
8:53 AM59 °FSunny.No wind38%29.95 "Hg10 mi
Weather by CustomWeather, © 2015

See weather overviewHow to use our weather pages